• Processing (Info)

  • MPEC 2004-X52 : 2004 XG29

    The following Minor Planet Electronic Circular may be linked-to from your own Web pages, but must not otherwise be redistributed electronically.

    A form allowing access to any MPEC is at the bottom of this page.


    Read MPEC 2004-X51 Read MPEC 2004-X53


    M.P.E.C. 2004-X52                                Issued 2004 Dec. 12, 19:14 UT
    
         The Minor Planet Electronic Circulars contain information on unusual
             minor planets and routine data on comets.  They are published
       on behalf of Commission 20 of the International Astronomical Union by the
              Minor Planet Center, Smithsonian Astrophysical Observatory,
                              Cambridge, MA 02138, U.S.A.
    
                      Supported in part by the Brinson Foundation
                 Prepared using the Tamkin Foundation Computer Network
    
                                  MPC@CFA.HARVARD.EDU
              URL http://cfa-www.harvard.edu/iau/mpc.html  ISSN 1523-6714
    
                                       2004 XG29
    
    Observations:
         K04X29G* C2004 12 10.06219 00 01 05.88 +07 14 51.9          19.1   EX052704
         K04X29G  C2004 12 10.06228 00 01 05.97 +07 14 53.5          19.3   EX052704
         K04X29G  C2004 12 10.07432 00 01 30.03 +07 18 04.7          18.9   EX052704
         K04X29G  C2004 12 10.07441 00 01 30.23 +07 18 06.9          19.1   EX052704
         K04X29G  C2004 12 10.08652 00 01 54.39 +07 21 19.1          19.4   EX052704
         K04X29G  C2004 12 10.08661 00 01 54.64 +07 21 20.0          20.0   EX052704
         K04X29G  C2004 12 10.10806 00 02 37.60 +07 27 01.2          19.0   EX052704
         K04X29G  C2004 12 10.10815 00 02 37.72 +07 27 02.5          19.0   EX052704
         K04X29G  C2004 12 10.12626 00 03 14.25 +07 31 50.0          19.0   EX052704
         K04X29G  C2004 12 10.12635 00 03 14.49 +07 31 52.1          18.8   EX052704
         K04X29G tC2004 12 11.86361 01 16 20.88 +15 37 24.4                 EX052246
         K04X29G  C2004 12 11.86491 01 16 24.17 +15 37 44.5                 EX052246
         K04X29G  C2004 12 11.86522 01 16 25.11 +15 37 49.9                 EX052246
         K04X29G  C2004 12 11.86569 01 16 26.23 +15 37 57.2                 EX052246
         K04X29G  C2004 12 11.86731 01 16 30.72 +15 38 24.3                 EX052246
         K04X29G  C2004 12 11.86766 01 16 31.62 +15 38 30.3                 EX052246
         K04X29G  C2004 12 11.86807 01 16 32.68 +15 38 36.3                 EX052246
         K04X29G  C2004 12 11.86913 01 16 35.52 +15 38 53.7                 EX052246
         K04X29G  C2004 12 11.86964 01 16 36.93 +15 39 02.3                 EX052246
         K04X29G  C2004 12 11.87032 01 16 38.66 +15 39 13.9                 EX052246
         K04X29G  C2004 12 11.87104 01 16 40.55 +15 39 25.1                 EX052246
         K04X29G  C2004 12 11.87976 01 17 05.25 +15 42 16.1          16.9 R EX052587
         K04X29G  C2004 12 11.88087 01 17 08.35 +15 42 37.1                 EX052587
         K04X29G  C2004 12 11.88197 01 17 11.12 +15 42 53.5                 EX052587
         K04X29G  C2004 12 11.88478 01 17 18.34 +15 43 39.3                 EX052587
         K04X29G 3C2004 12 12.05598 01 25 52.40 +16 32 44.5          18.0 V EX052H06
         K04X29G 3C2004 12 12.06119 01 26 06.33 +16 34 11.6          18.1 V EX052H06
         K04X29G 3C2004 12 12.06647 01 26 20.30 +16 35 38.8          18.0 V EX052H06
         K04X29G 2C2004 12 12.11511 01 28 29.57 +16 48 59.4          17.2 R EX052H06
         K04X29G 2C2004 12 12.11878 01 28 39.29 +16 49 59.1          17.4 R EX052H06
         K04X29G 2C2004 12 12.12235 01 28 48.82 +16 50 57.1          17.0 R EX052H06
         K04X29G  C2004 12 12.15135 01 30 08.88 +16 58 58.0          17.3 R EX052651
         K04X29G  C2004 12 12.15216 01 30 11.06 +16 59 11.0          17.3 R EX052651
         K04X29G  C2004 12 12.15302 01 30 13.32 +16 59 24.8          17.1 R EX052651
         K04X29G  C2004 12 12.71421 01 57 45.52 +19 20 10.0          17.8 R EX052143
         K04X29G  C2004 12 12.71515 01 57 48.25 +19 20 23.9          17.4 R EX052143
         K04X29G  C2004 12 12.71597 01 57 50.55 +19 20 36.1          17.8 R EX052143
         K04X29G  C2004 12 12.72152 01 58 06.06 +19 21 59.8          17.6 R EX052143
         K04X29G  C2004 12 12.72255 01 58 08.98 +19 22 15.4          17.7 R EX052143
         K04X29G  C2004 12 12.72377 01 58 12.34 +19 22 33.0          17.4 R EX052143
    
    Observer details:
    143 Gnosca.  Observer S. Sposetti.  0.40-m f/4 reflector + CCD.
    246 Klet Observatory-KLENOT.  Observers J. Ticha, M. Tichy, M. Kocer.
        Measurer M. Tichy.  1.06-m KLENOT Telescope + CCD.
    587 Sormano.  Observers F. Manca, A. Testa.  Measurer F. Manca.  0.5-m f/6
        reflector + CCD.
    651 Grasslands Observatory, Tucson.  Observer J. E. McGaha.  0.62-m f/5.1
        Newtonian reflector + CCD.
    704 Lincoln Laboratory ETS, New Mexico.  Observers M. Blythe, F. Shelly,
        M. Bezpalko, R. Huber, L. Manguso, D. Torres, R. Kracke, M. McCleary,
        H. Stange, A. Milner.  Measurers J. Stuart, R. Sayer, J. Evans, J. Kommers.
        1.0-m f/2.15 reflector + CCD.
    H06 New Mexico Skies Observatory.  Observers R. Hutsebaut, J. Sue.  0.25-m
        reflector + CCD, 0.30-m reflector + CCD.
    
    Orbital elements:
    2004 XG29
    Epoch 2005 Jan. 30.0 TT = JDT 2453400.5                 MPC
    M  42.56916              (2000.0)            P               Q
    n   0.59064940     Peri.  109.34819     +0.60657708     -0.79502149
    a   1.4068556      Node   303.30919     +0.72840555     +0.55688204
    e   0.3120059      Incl.    0.15443     +0.31857432     +0.24046460
    P   1.67           H   25.2           G   0.15           U   6
    Residuals in seconds of arc
    041210 704  0.0   0.3-    041211 246  0.9+  0.1+    041212 H06  0.1+  0.1-
    041210 704  1.3-  0.1-    041211 246  0.4+  0.4+    041212 H06  0.3-  0.1-
    041210 704  0.2-  0.3-    041211 246  0.1-  0.3-    041212 H06  0.4+  0.1-
    041210 704  0.1+  0.5+    041211 246  0.1+  0.3-    041212 651  0.1-  0.1+
    041210 704  0.2-  0.2+    041211 246  0.8+  0.0     041212 651  0.3+  0.1+
    041210 704  0.9+  0.3-    041211 246  0.4-  0.5+    041212 651  0.1-  0.1+
    041210 704  0.5+  0.1+    041211 246  0.9-  0.1-    041212 143  1.1-  0.0
    041210 704  0.4-  0.0     041211 587  0.1+  1.2-    041212 143  0.2+  0.2-
    041210 704  0.0   0.2-    041211 587 (2.2+  1.7+)   041212 143  0.3+  0.3-
    041210 704  0.9+  0.5+    041211 587  0.0   0.2+    041212 143  0.0   0.3+
    041211 246  1.2+  0.8+    041211 587 (3.9-  0.1+)   041212 143  0.6+  0.4+
    041211 246  1.3-  0.4-    041212 H06  0.1+  0.4+    041212 143  0.1-  0.2-
    041211 246  0.3+  0.1-    041212 H06  0.9+  0.6+
    041211 246  1.6-  0.5-    041212 H06  0.4-  0.1-
    
    Ephemeris:
    2004 XG29                a,e,i = 1.41, 0.31, 0                   q = 0.9679
    Date    TT    R. A. (2000) Decl.     Delta      r     Elong.  Phase     V
    2004 12 11    00 37.88   +11 37.7    0.016    0.991   113.9    65.3    18.5
    2004 12 12    01 22.93   +16 20.2    0.015    0.993   124.7    54.6    18.1
    2004 12 13    02 11.37   +20 31.2    0.015    0.995   135.9    43.5    17.8
    2004 12 14    02 59.18   +23 39.2    0.016    0.998   146.3    33.2    17.6
    2004 12 15    03 42.60   +25 36.9    0.017    1.000   155.3    24.3    17.5
    2004 12 16    04 19.65   +26 37.3    0.019    1.003   162.6    17.1    17.5
    2004 12 17    04 50.12   +26 59.5    0.021    1.005   168.2    11.5    17.6
    2004 12 18    05 14.78   +26 59.3    0.024    1.008   172.5     7.4    17.6
    2004 12 19    05 34.70   +26 47.3    0.027    1.010   175.4     4.5    17.7
    2004 12 20    05 50.88   +26 29.6    0.029    1.013   176.9     3.0    17.9
    2004 12 21    06 04.15   +26 09.8    0.032    1.016   176.9     3.0    18.1
    
    2004 12 31    07 03.67   +23 38.6    0.065    1.048   174.9     4.8    19.8
    2005 01 10    07 20.66   +22 32.5    0.102    1.085   178.7     1.2    20.6
    2005 01 20    07 28.53   +21 58.9    0.145    1.127   170.5     8.3    21.8
    
    Kyle E. Smalley              (C) Copyright 2004 MPC           M.P.E.C. 2004-X52
    

    Read MPEC 2004-X51 Read MPEC 2004-X53


    MPEC number:

    Enter an MPEC number in one of the following forms:

    • 1997-B01 (the full form)
    • J97B01 (the packed version of the full form)
    • B01 (the abbreviated form)